• în România
  • Lista ţărilor
  • Pe 7 zile
  • Temperatura apei
  • Hartă satelitară
  • Meteo pe hartă
  • Widget-uri
  • user-avatar
    Intrare

    Meteo pe oră la Annaba

    Astăzi, 23 Iunie, Vineri

    Timp Temperatura Precipitaţii Vânt Presiune Umiditate
    00:00 +23°C° 0 mm 1 m/s 763 mmHg 91%
    01:00 +23°C° 0 mm 1 m/s 763 mmHg 92%
    02:00 +22°C° 0 mm 1 m/s 763 mmHg 92%
    03:00 +22°C° 0 mm 1 m/s 762 mmHg 92%
    04:00 +22°C° 0 mm 1 m/s 762 mmHg 92%
    05:00 +23°C° 0 mm 1 m/s 762 mmHg 86%
    06:00 +25°C° 0 mm 1 m/s 763 mmHg 79%
    07:00 +26°C° 0 mm 1 m/s 763 mmHg 73%
    08:00 +28°C° 0 mm 1 m/s 763 mmHg 65%
    09:00 +30°C° 0 mm 1 m/s 763 mmHg 57%
    10:00 +32°C° 0 mm 1 m/s 763 mmHg 49%
    11:00 +34°C° 0 mm 2 m/s 763 mmHg 46%
    12:00 +35°C° 0 mm 3 m/s 763 mmHg 43%
    13:00 +36°C° 0 mm 4 m/s 763 mmHg 40%
    14:00 +36°C° 0 mm 4 m/s 762 mmHg 41%
    15:00 +35°C° 0 mm 4 m/s 762 mmHg 42%
    16:00 +35°C° 0 mm 4 m/s 762 mmHg 43%
    17:00 +34°C° 0 mm 4 m/s 762 mmHg 47%
    18:00 +31°C° 0 mm 3 m/s 762 mmHg 51%
    19:00 +30°C° 0 mm 3 m/s 762 mmHg 55%
    20:00 +28°C° 0 mm 2 m/s 762 mmHg 63%
    21:00 +26°C° 0 mm 1 m/s 763 mmHg 71%
    22:00 +24°C° 0 mm 1 m/s 763 mmHg 79%
    23:00 +24°C° 0 mm 1 m/s 763 mmHg 79%

    Mâine, 24 Iunie, Sâmbătă

    Timp Temperatura Precipitaţii Vânt Presiune Umiditate
    00:00 +24°C° 0 mm 1 m/s 763 mmHg 79%
    01:00 +22°C° 0 mm 0 m/s 763 mmHg 79%
    02:00 +21°C° 0 mm 0 m/s 763 mmHg 81%
    03:00 +21°C° 0 mm 0 m/s 762 mmHg 82%
    04:00 +20°C° 0 mm 0 m/s 762 mmHg 83%
    05:00 +22°C° 0 mm 0 m/s 762 mmHg 76%
    06:00 +24°C° 0 mm 0 m/s 762 mmHg 68%
    07:00 +25°C° 0 mm 0 m/s 762 mmHg 61%
    08:00 +29°C° 0 mm 1 m/s 762 mmHg 54%
    09:00 +31°C° 0 mm 1 m/s 762 mmHg 47%
    10:00 +34°C° 0 mm 2 m/s 763 mmHg 41%
    11:00 +35°C° 0 mm 2 m/s 762 mmHg 38%
    12:00 +36°C° 0 mm 3 m/s 762 mmHg 35%
    13:00 +37°C° 0 mm 4 m/s 762 mmHg 33%
    14:00 +37°C° 0 mm 4 m/s 761 mmHg 32%
    15:00 +36°C° 0 mm 4 m/s 761 mmHg 32%
    16:00 +36°C° 0 mm 4 m/s 760 mmHg 31%
    17:00 +35°C° 0 mm 4 m/s 760 mmHg 34%
    18:00 +33°C° 0 mm 3 m/s 760 mmHg 37%
    19:00 +31°C° 0 mm 3 m/s 760 mmHg 40%
    20:00 +29°C° 0 mm 2 m/s 761 mmHg 47%
    21:00 +27°C° 0 mm 2 m/s 761 mmHg 54%
    22:00 +24°C° 0 mm 1 m/s 762 mmHg 61%
    23:00 +24°C° 0 mm 1 m/s 761 mmHg 63%

    Poimâine, 25 Iunie, Duminică

    Timp Temperatura Precipitaţii Vânt Presiune Umiditate
    00:00 +24°C° 0 mm 1 m/s 761 mmHg 65%
    01:00 +23°C° 0 mm 1 m/s 761 mmHg 67%
    02:00 +21°C° 0 mm 0 m/s 761 mmHg 68%
    03:00 +21°C° 0 mm 0 m/s 761 mmHg 69%
    04:00 +20°C° 0 mm 0 m/s 760 mmHg 70%
    05:00 +23°C° 0 mm 0 m/s 760 mmHg 62%
    06:00 +27°C° 0 mm 1 m/s 760 mmHg 53%
    07:00 +29°C° 0 mm 1 m/s 760 mmHg 45%
    08:00 +31°C° 0 mm 1 m/s 760 mmHg 40%
    09:00 +33°C° 0 mm 1 m/s 760 mmHg 35%
    10:00 +37°C° 0 mm 2 m/s 760 mmHg 30%
    11:00 +37°C° 0 mm 2 m/s 760 mmHg 28%
    12:00 +38°C° 0 mm 3 m/s 759 mmHg 25%
    13:00 +40°C° 0 mm 4 m/s 759 mmHg 23%
    14:00 +40°C° 0 mm 4 m/s 759 mmHg 24%
    15:00 +40°C° 0 mm 5 m/s 758 mmHg 25%
    16:00 +40°C° 0 mm 5 m/s 758 mmHg 26%
    17:00 +37°C° 0 mm 5 m/s 758 mmHg 31%
    18:00 +36°C° 0 mm 4 m/s 758 mmHg 36%
    19:00 +34°C° 0 mm 4 m/s 758 mmHg 41%
    20:00 +30°C° 0 mm 3 m/s 758 mmHg 49%
    21:00 +28°C° 0 mm 3 m/s 759 mmHg 56%
    22:00 +26°C° 0 mm 2 m/s 759 mmHg 64%
    23:00 +26°C° 0 mm 2 m/s 759 mmHg 63%

    26 Iunie, Luni

    Timp Temperatura Precipitaţii Vânt Presiune Umiditate
    00:00 +26°C° 0 mm 2 m/s 758 mmHg 62%
    01:00 +26°C° 0 mm 1 m/s 758 mmHg 62%
    02:00 +26°C° 0 mm 1 m/s 758 mmHg 60%
    03:00 +26°C° 0 mm 1 m/s 757 mmHg 59%
    04:00 +26°C° 0 mm 1 m/s 757 mmHg 58%
    05:00 +28°C° 0 mm 2 m/s 757 mmHg 51%
    06:00 +30°C° 0 mm 2 m/s 757 mmHg 45%
    07:00 +32°C° 0 mm 2 m/s 757 mmHg 38%
    08:00 +35°C° 0 mm 3 m/s 757 mmHg 32%
    09:00 +38°C° 0 mm 3 m/s 757 mmHg 26%
    10:00 +42°C° 0 mm 3 m/s 757 mmHg 20%
    11:00 +43°C° 0 mm 3 m/s 756 mmHg 18%
    12:00 +45°C° 0 mm 4 m/s 756 mmHg 16%
    13:00 +47°C° 0 mm 4 m/s 755 mmHg 14%
    14:00 +47°C° 0 mm 4 m/s 755 mmHg 15%
    15:00 +46°C° 0 mm 5 m/s 755 mmHg 16%
    16:00 +46°C° 0 mm 5 m/s 755 mmHg 17%
    17:00 +43°C° 0 mm 4 m/s 755 mmHg 20%
    18:00 +40°C° 0 mm 3 m/s 755 mmHg 23%
    19:00 +38°C° 0 mm 2 m/s 755 mmHg 26%
    20:00 +36°C° 0 mm 2 m/s 756 mmHg 30%
    21:00 +32°C° 0 mm 2 m/s 756 mmHg 33%
    22:00 +30°C° 0 mm 1 m/s 756 mmHg 37%
    23:00 +30°C° 0 mm 2 m/s 756 mmHg 36%

    27 Iunie, Marţi

    Timp Temperatura Precipitaţii Vânt Presiune Umiditate
    00:00 +29°C° 0 mm 2 m/s 756 mmHg 36%
    01:00 +29°C° 0 mm 2 m/s 756 mmHg 36%
    02:00 +29°C° 0 mm 2 m/s 756 mmHg 35%
    03:00 +30°C° 0 mm 2 m/s 756 mmHg 35%
    04:00 +30°C° 0 mm 2 m/s 755 mmHg 35%
    05:00 +31°C° 0 mm 2 m/s 756 mmHg 33%
    06:00 +32°C° 0 mm 2 m/s 756 mmHg 32%
    07:00 +35°C° 0 mm 2 m/s 756 mmHg 31%
    08:00 +37°C° 0 mm 2 m/s 756 mmHg 29%
    09:00 +39°C° 0 mm 3 m/s 757 mmHg 26%
    10:00 +40°C° 0 mm 3 m/s 757 mmHg 24%
    11:00 +42°C° 0 mm 3 m/s 756 mmHg 24%
    12:00 +43°C° 0 mm 4 m/s 756 mmHg 24%
    13:00 +44°C° 0 mm 4 m/s 756 mmHg 24%
    14:00 +43°C° 0 mm 4 m/s 756 mmHg 26%
    15:00 +42°C° 0 mm 3 m/s 756 mmHg 28%
    16:00 +40°C° 0 mm 3 m/s 756 mmHg 30%
    17:00 +38°C° 0,3 mm 3 m/s 756 mmHg 34%
    18:00 +37°C° 0,3 mm 2 m/s 756 mmHg 37%
    19:00 +35°C° 0,3 mm 2 m/s 756 mmHg 41%
    20:00 +32°C° 0,3 mm 2 m/s 757 mmHg 46%
    21:00 +31°C° 0,3 mm 2 m/s 757 mmHg 50%
    22:00 +29°C° 0,3 mm 2 m/s 758 mmHg 55%
    23:00 +30°C° 0,3 mm 2 m/s 757 mmHg 53%

    28 Iunie, Miercuri

    Timp Temperatura Precipitaţii Vânt Presiune Umiditate
    00:00 +30°C° 0,3 mm 3 m/s 757 mmHg 51%
    01:00 +30°C° 0,3 mm 3 m/s 757 mmHg 49%
    02:00 +31°C° 0 mm 3 m/s 756 mmHg 46%
    03:00 +31°C° 0 mm 3 m/s 756 mmHg 44%
    04:00 +32°C° 0 mm 4 m/s 755 mmHg 42%
    05:00 +33°C° 0 mm 4 m/s 755 mmHg 39%
    06:00 +34°C° 0 mm 4 m/s 755 mmHg 36%
    07:00 +35°C° 0 mm 4 m/s 755 mmHg 34%
    08:00 +38°C° 0 mm 3 m/s 755 mmHg 28%
    09:00 +42°C° 0 mm 3 m/s 755 mmHg 22%
    10:00 +45°C° 0 mm 3 m/s 755 mmHg 16%
    11:00 +44°C° 0 mm 4 m/s 755 mmHg 19%
    12:00 +44°C° 0 mm 6 m/s 755 mmHg 22%
    13:00 +44°C° 0 mm 7 m/s 755 mmHg 25%
    14:00 +42°C° 0 mm 6 m/s 755 mmHg 27%
    15:00 +41°C° 0 mm 5 m/s 755 mmHg 28%
    16:00 +39°C° 0 mm 5 m/s 755 mmHg 30%
    17:00 +37°C° 0 mm 4 m/s 755 mmHg 33%
    18:00 +35°C° 0 mm 3 m/s 755 mmHg 36%
    19:00 +34°C° 0 mm 3 m/s 756 mmHg 40%
    20:00 +31°C° 0 mm 2 m/s 756 mmHg 46%
    21:00 +29°C° 0 mm 2 m/s 756 mmHg 52%
    22:00 +27°C° 0 mm 1 m/s 757 mmHg 57%
    23:00 +27°C° 0 mm 1 m/s 756 mmHg 57%
    Arată mai mult